This is the latest recevied weather packets stored in our database for station/object F5MAP-5. If no packets are shown the sender has not sent any weather packets the latest 10 day(s).
| Time | Temp. | Humidity | Pressure | Rain* | Wind** | Luminosity | Snow |
|---|---|---|---|---|---|---|---|
| 1777648343 | 23.33° C | 29% | 1022.2 hPa | 0 mm | - | 28 W/m² | - |
| 1777647744 | 23.33° C | 29% | 1022.3 hPa | 0 mm | - | 30 W/m² | - |
| 1777647143 | 23.33° C | 29% | 1022.4 hPa | 0 mm | - | 30 W/m² | - |
| 1777645943 | 23.33° C | 28% | 1022.5 hPa | 0 mm | - | 32 W/m² | - |
| 1777645343 | 23.33° C | 30% | 1022.6 hPa | 0 mm | - | 33 W/m² | - |
| 1777644743 | 23.33° C | 29% | 1022.7 hPa | 0 mm | - | 35 W/m² | - |
| 1777644143 | 23.33° C | 29% | 1022.8 hPa | 0 mm | - | 35 W/m² | - |
| 1777643542 | 23.33° C | 30% | 1022.9 hPa | 0 mm | - | 37 W/m² | - |
| 1777642342 | 23.33° C | 29% | 1023.1 hPa | 0 mm | - | 737 W/m² | - |
| 1777641742 | 23.89° C | 29% | 1023.3 hPa | 0 mm | - | 742 W/m² | - |
| 1777641142 | 23.89° C | 27% | 1023.4 hPa | 0 mm | - | 752 W/m² | - |
| 1777639947 | 24.44° C | 28% | 1023.6 hPa | 0 mm | - | 773 W/m² | - |
| 1777639347 | 24.44° C | 26% | 1023.8 hPa | 0 mm | - | 782 W/m² | - |
| 1777638746 | 25° C | 25% | 1023.9 hPa | 0 mm | - | 788 W/m² | - |
| 1777638146 | 25° C | 25% | 1024 hPa | 0 mm | - | 798 W/m² | - |
| 1777636948 | 23.89° C | 27% | 1024.2 hPa | 0 mm | - | 809 W/m² | - |
| 1777636346 | 23.89° C | 26% | 1024.3 hPa | 0 mm | - | 812 W/m² | - |
| 1777635746 | 23.33° C | 26% | 1024.4 hPa | 0 mm | - | 814 W/m² | - |
| 1777635146 | 23.33° C | 27% | 1024.6 hPa | 0 mm | - | 819 W/m² | - |
| 1777634546 | 22.78° C | 29% | 1024.6 hPa | 0 mm | - | 817 W/m² | - |
| 1777633945 | 22.78° C | 28% | 1024.7 hPa | 0 mm | - | 814 W/m² | - |
| 1777633346 | 21.67° C | 29% | 1024.8 hPa | 0 mm | - | 810 W/m² | - |
| 1777632745 | 21.67° C | 29% | 1025 hPa | 0 mm | - | 807 W/m² | - |
| 1777632145 | 20.56° C | 29% | 1025.2 hPa | 0 mm | - | 803 W/m² | - |
| 1777631545 | 20.56° C | 29% | 1025.2 hPa | 0 mm | - | 798 W/m² | - |
* Rain latest hour (hover to see other rain measurements)
** Current wind speed in m/s (hover to see current wind gust speed)